Flag for Canada Weather past 2 weeks in Calgary, Alberta, Canada

Now
50 °F

Partly cloudy.


Feels Like: 48 °F
Forecast: 43 / 61 °F
Wind: 5 mph from Southwest

Location: Calgary International

Current Time: Sep 2, 2014 at 1:51:09 AM

Latest Report: Sep 2, 2014 at 1:00 AM


Visibility: 15 mi

Pressure: 29.83 "Hg

Humidity: 71%

Dew point: 41 °F

Location of CalgaryLocation

Historic Weather in Calgary — Graph

°F

Calgary temperature yesterday

Maximum temperature yesterday: 68 °F (at 2:00 PM)
Minimum temperature yesterday: 43 °F (at 5:00 AM)
Average temperature yesterday: 55 °F

Past Weeks' High & Low Weather Summary

 TemperatureHumidityPressure
High82 °F (Aug 18, 5:00 PM)100% (Aug 24, 4:00 AM)30.41 "Hg (Aug 24, 4:00 AM)
Low41 °F (Aug 29, 7:00 AM)17% (Aug 27, 4:00 PM)29.69 "Hg (Aug 29, 8:00 PM)
Average57 °F68%30.01 "Hg
* Reported Midnight between Aug 17 and Aug 18 — Midnight between Sep 1 and Sep 2, Calgary, Weather by CustomWeather, © 2014

Note: Actual official high and low records may vary slightly from our data, if they occured in-between our weather recording intervals... More about our weather records

Advertising

Calgary weather history for previous 24 hours

 ConditionsComfort  
Time TempWeatherWind HumidityBarometerVisibility
12:00 AM
Sep 2
50 °FOvercast.No wind67%29.85 "Hg15 mi
11:00 PM
Sep 1
46 °FPassing clouds.6 mph76%29.86 "Hg15 mi
10:00 PM50 °FPassing clouds.8 mph67%29.87 "Hg15 mi
9:00 PM61 °FBroken clouds.15 mph36%29.82 "Hg15 mi
8:00 PM61 °FBroken clouds.16 mph36%29.81 "Hg20 mi
7:00 PM64 °FBroken clouds.20 mph30%29.80 "Hg40 mi
6:00 PM68 °FPartly sunny.23 mph26%29.79 "Hg40 mi
5:00 PM68 °FMostly cloudy.13 mph26%29.80 "Hg40 mi
4:00 PM68 °FPartly sunny.20 mph26%29.80 "Hg40 mi
3:00 PM68 °FMostly cloudy.17 mph26%29.80 "Hg40 mi
2:00 PM68 °FPartly sunny.15 mph28%29.80 "Hg40 mi
1:00 PM66 °FPassing clouds.15 mph28%29.82 "Hg40 mi
12:00 PM64 °FPassing clouds.10 mph32%29.83 "Hg40 mi
11:00 AM61 °FPassing clouds.13 mph36%29.85 "Hg40 mi
10:00 AM55 °FPassing clouds.6 mph51%29.88 "Hg40 mi
9:00 AM50 °FPassing clouds.2 mph58%29.90 "Hg40 mi
8:00 AM45 °FPassing clouds.3 mph71%29.92 "Hg40 mi
7:00 AM45 °FPassing clouds.No wind66%29.92 "Hg40 mi
6:00 AM43 °FPassing clouds.3 mph71%29.92 "Hg15 mi
5:00 AM43 °FPassing clouds.7 mph76%29.92 "Hg15 mi
4:00 AM45 °FPassing clouds.7 mph71%29.91 "Hg15 mi
3:00 AM46 °FClear.3 mph66%29.91 "Hg15 mi
2:00 AM46 °FClear.5 mph66%29.91 "Hg15 mi
1:00 AM48 °FPassing clouds.5 mph62%29.91 "Hg15 mi
Weather by CustomWeather, © 2014

See weather overviewHow to use our weather pages